This demonstration page uses our WeatherBlox Daily Observations layout. Learn more.

Left ArrowRight Arrow

44.89941, -97.11507

Hourly Observations for April 23, 2019

Temp ( °F °C ) Dew Point ( °F °C ) Humidity (%) Winds ( mph kmh ) Pressure ( in mb ) Visibility ( mi km ) Precip ( " mm )
12:53 am 00:53 Clear 40 4.4 35 1.7 83 83 Calm 30.17 1022 10 16 0.00 0.00
1:53 am 01:53 Clear 38 3.3 32 0 79 79 Calm 30.17 1022 10 16 0.00 0.00
2:53 am 02:53 Clear 39 3.9 34 1.1 82 82 SSE 3 6 30.16 1021 10 16 0.00 0.00
3:53 am 03:53 Clear 39 3.9 36 2.2 89 89 Calm 30.16 1021 10 16 0.00 0.00
4:53 am 04:53 Clear 37 2.8 35 1.7 93 93 Calm 30.16 1021 10 16 0.00 0.00
5:06 am 05:06 Clear with Mist and Fog 36 2.2 35 1.7 97 97 Calm 30.19 1022 2 3 0.00 0.00
5:15 am 05:15 Clear with Mist and Fog 34 1.1 33 0.6 97 97 Calm 30.20 1023 4 6 0.00 0.00
5:53 am 05:53 Clear 35 1.7 34 1.1 96 96 Calm 30.16 1021 10 16 0.00 0.00
6:53 am 06:53 Sunny 36 2.2 34 1.1 93 93 Calm 30.16 1021 8 13 0.00 0.00
7:53 am 07:53 Sunny 40 4.4 37 2.8 89 89 S 3 6 30.18 1022 10 16 0.00 0.00
8:53 am 08:53 Sunny 47 8.3 39 3.9 74 74 SSW 10 17 30.17 1022 10 16 0.00 0.00
9:53 am 09:53 Sunny 53 11.7 38 3.3 57 57 SW 12 19 30.16 1022 10 16 0.00 0.00
10:53 am 10:53 Sunny 57 13.9 39 3.9 51 51 SSW 14 22 30.15 1021 10 16 0.00 0.00
11:53 am 11:53 Sunny 60 15.6 40 4.4 47 47 SSW 12 19 30.13 1020 10 16 0.00 0.00
12:53 pm 12:53 Sunny 63 17.2 36 2.2 37 37 SW 12 19 30.10 1019 10 16 0.00 0.00
1:53 pm 13:53 Sunny 64 17.8 35 1.7 34 34 SSW 14 22 30.06 1018 10 16 0.00 0.00
2:53 pm 14:53 Sunny 65 18.3 36 2.2 34 34 SSW 16 26 30.04 1017 10 16 0.00 0.00
3:53 pm 15:53 Sunny 66 18.9 36 2.2 33 33 SSW 14 22 30.01 1016 10 16 0.00 0.00
4:53 pm 16:53 Sunny 66 18.9 38 3.3 36 36 SSW 15 24 29.99 1016 10 16 0.00 0.00
5:53 pm 17:53 Sunny 65 18.3 38 3.3 37 37 SSW 20 31 29.97 1015 10 16 0.00 0.00
6:53 pm 18:53 Sunny 63 17.2 38 3.3 40 40 S 17 28 29.96 1014 10 16 0.00 0.00
7:53 pm 19:53 Sunny 59 15 38 3.3 46 46 S 10 17 29.94 1014 10 16 0.00 0.00
8:53 pm 20:53 Clear 55 12.8 39 3.9 55 55 S 12 19 29.93 1014 10 16 0.00 0.00
9:53 pm 21:53 Clear 53 11.7 39 3.9 59 59 S 10 17 29.92 1013 10 16 0.00 0.00
10:53 pm 22:53 Clear 51 10.6 38 3.3 61 61 S 12 19 29.91 1013 10 16 0.00 0.00
11:53 pm 23:53 Clear 50 10 37 2.8 61 61 S 14 22 29.88 1012 10 16 0.00 0.00

Powered by AerisWeather